ROMMA est une association bénévole à but non lucratif. Votre soutien est indispensable : ADHERER à ROMMA ou FAIRE un DON

Crempigny-Bonneguête - (74, Haute-Savoie)

Albanais-Montagne des Princes (500 m)   Longitude: 05° 54' 5" E   Latitude: 45° 57' 0" N Station partenaire n°10
 

Détail journalier du     <<     >>

Température Precipitation Humidité Pression Vent Dir Rafale Dir. rafale Ensol. 20 cm au dessus du sol
Heure (°C) (mm) (%) (hPa) (km/h) (km/h) (min) (°C)
01:00 8.307610083O8NO07.2
02:00 7.208110093ONO8NNE05.6
03:00 7.408110083NO6ONO05.6
04:00 7.608110084NO8NO06.1
05:00 6.708610083ONO8ONO05.6
06:00 6.208510083NO11N05.0
07:00 5.908610084NNO11NNE05.0
08:00 5.909010091N10N255.6
09:00 8.108510096N16ENE57.2
10:00 10.107910097NE19NE5011.1
11:00 11.307510097NNE16NE3512.8
12:00 13.206810097NNE16NNE6015.0
13:00 14.206310089NNE21E6016.1
14:00 15.9055100810NNE24NE6017.8
15:00 14.5059100811NO24NO2015.6
16:00 13.8058100817NO31NO2515.6
17:00 12.2067100817NO40OSO4012.2
18:00 11.9066100817NO32NNO011.7
19:00 12.2068100815ONO27NO3512.2
20:00 11.8070100813NO27NO1011.1
21:00 11.7070100914NO21NO011.1
22:00 11.7070101014N34N011.1
23:00 10.7073101012N29NNE010.0
minuit 10.1077101010N26NNO09.4

Graphique du 10-04-2019

 

Serveur OMMA